Find Starlink 4188

NORAD ID: 52843 Int'l Des: 2022-062 Owner: SPXS Country: US Constellation: starlink operational
LEOCIRCULAR

Live Position

Loading 3D Globe...

About Starlink 4188

Description loading...

Upcoming Passes

Passes for default location (London). Set your location on the main map for personalized predictions.

Altitude History

Loading altitude history...

Two-Line Element Set

1 52843U 22062P 26124.42856734 .00000773 00000-0 66648-4 0 9999
2 52843 53.2164 143.8985 0001221 80.9624 279.1506 15.08836689214201
Epoch: May 4, 2026 • Age: 7 hours

Current Status

Altitude 545.0 km
Velocity 7.60 km/s
Sub-Earth Point 50.89°N, 137.29°E
Launch Date Jun 17, 2022
Age 3.8 years
Type internet

Technical Details

Classification Payload
Mass 297.00 kg
Dry Mass 275.00 kg
Total Mass 297.00 kg
Length 0.20 m
Diameter 2.80 m
Span 9.00 m
Shape Box + pan
Manufacturer SPXS
Bus Type Starlink
Phase Status In Orbit
Owner/State SPXS/US

Most Searched